This demonstration page uses our WeatherBlox Daily Observations layout. Learn more.

Left ArrowRight Arrow

44.97997, -93.26384

Hourly Observations for September 24, 2021

Temp ( °F °C ) Dew Point ( °F °C ) Humidity (%) Winds ( mph kmh ) Pressure ( in mb ) Visibility ( mi km ) Precip ( " mm )
12:53 am 00:53 Mostly Clear 58 14.4 42 5.6 56 56 ESE 6 9 29.89 1012 10 16 N/A
1:53 am 01:53 Partly Cloudy 55 12.8 44 6.7 67 67 ESE 6 9 29.87 1012 10 16 N/A
2:53 am 02:53 Partly Cloudy 55 12.8 44 6.7 67 67 ESE 7 11 29.85 1011 10 16 N/A
3:53 am 03:53 Partly Cloudy 54 12.2 43 6.1 67 67 ESE 7 11 29.83 1010 10 16 N/A
4:53 am 04:53 Mostly Clear 54 12.2 43 6.1 67 67 SE 6 9 29.82 1010 10 16 N/A
5:53 am 05:53 Clear 53 11.7 43 6.1 69 69 SSE 3 6 29.81 1010 10 16 N/A
6:53 am 06:53 Partly Cloudy 52 11.1 43 6.1 72 72 SE 6 9 29.81 1010 10 16 N/A
7:53 am 07:53 Mostly Cloudy 53 11.7 44 6.7 72 72 SE 3 6 29.81 1010 10 16 N/A
8:53 am 08:53 Mostly Cloudy 56 13.3 47 8.3 72 72 WNW 6 9 29.84 1010 10 16 N/A
9:53 am 09:53 Mostly Cloudy 59 15 49 9.4 69 69 NNW 21 33 29.85 1011 10 16 N/A
10:53 am 10:53 Cloudy 61 16.1 47 8.3 60 60 N 17 28 29.87 1012 10 16 N/A
11:53 am 11:53 Cloudy with Light Rain 56 13.3 50 10 81 81 NNW 15 24 29.92 1013 8 13 0.00 0.00
12:53 pm 12:53 Cloudy with Light Rain 54 12.2 50 10 87 87 NNE 8 13 29.91 1013 7 11 0.03 0.76
1:53 pm 13:53 Mostly Cloudy 55 12.8 51 10.6 87 87 N 8 13 29.92 1013 10 16 0.01 0.25
2:53 pm 14:53 Mostly Cloudy 56 13.3 49 9.4 77 77 N 9 15 29.92 1013 10 16 N/A
3:53 pm 15:53 Mostly Cloudy 58 14.4 48 8.9 70 70 NNW 8 13 29.92 1013 10 16 N/A
4:53 pm 16:53 Partly Cloudy 61 16.1 48 8.9 63 63 W 6 9 29.91 1013 10 16 N/A
5:53 pm 17:53 Partly Cloudy 61 16.1 48 8.9 63 63 W 5 7 29.91 1013 10 16 N/A
6:53 pm 18:53 Partly Cloudy 60 15.6 48 8.9 65 65 WSW 8 13 29.91 1013 10 16 N/A
7:53 pm 19:53 Mostly Clear 56 13.3 39 3.9 53 53 WNW 6 9 29.93 1013 10 16 N/A
8:53 pm 20:53 Clear 54 12.2 37 2.8 53 53 W 7 11 29.94 1014 10 16 N/A
9:53 pm 21:53 Clear 52 11.1 37 2.8 57 57 WNW 6 9 29.94 1014 10 16 N/A
10:53 pm 22:53 Clear 52 11.1 36 2.2 55 55 WNW 7 11 29.95 1014 10 16 N/A
11:53 pm 23:53 Clear 51 10.6 35 1.7 54 54 W 6 9 29.96 1015 10 16 N/A

Powered by AerisWeather